Weather in Santa Ana

Bolivia     13°44′35″S   65°26′04″W
temp.,
°C
wind,
m/s
gust,
m/s
humid.,
%
clouds,
%
prec.,
mm/h
press.,
hPa
HPBL,
m
11 may, tue
tue1123:00+23se22835 0.0 101516
02:00+22s23845 0.0 101347
05:00+21sse23876 0.0 101359
08:00+23s35836 0.0 1016205
11:00+29sse34624 0.0 1016795
14:00+30s235923 1.5 1012835
17:00+28e117082 1.6 101050
20:00+25se227865 1.6 101216
12 may, wed
wed1223:00+23sse33840 0.0 101354
02:00+21s388930 0.3 1013232
05:00+21sse3989100 0.4 1014276
08:00+21se388993 0.4 1016316
11:00+25sse45727 0.0 1016692
14:00+27sse446627 0.0 10131025
17:00+25s46756 0.0 1012470
20:00+22s4982100 0.0 1014224
13 may, thu
thu1323:00+21sse31077100 0.0 1015285
02:00+20sse51177100 0.0 1015375
05:00+18sse4978100 0.0 1015327
08:00+19se4978100 0.0 1017317
11:00+21sse3472100 0.0 1018377
14:00+24s336559 0.0 1014680
17:00+24sse237134 0.0 1011385
20:00+21sse11802 0.0 101311
14 may, fri
fri1423:00+21sse11822 0.0 101411
02:00+20s238570 0.0 101449
05:00+19sse248815 0.0 101479
08:00+22sse348366 0.0 1016197
11:00+26sse3367100 0.0 1016603
14:00+27sse336399 0.0 1013762
17:00+26sse3471100 0.0 1011330
20:00+22sse33825 0.0 101348
15 may, sat
sat1523:00+21s2382100 0.0 101459
02:00+21sse3584100 0.0 1013117
05:00+20sse268799 0.0 1013150
08:00+22se348137 0.0 1014170
11:00+27ssw226383 0.1 1015732
14:00+29ssw226099 0.1 10121015
17:00+24sw4785100 0.1 1011239
20:00+22ssw248866 0.1 101385